Weather Service Report


676 
ASUS44 KJAN 281810
RWRMS 

MISSISSIPPI HOURLY WEATHER ROUNDUP
NATIONAL WEATHER SERVICE JACKSON MS
100 PM CDT MON JUL 28 2014

NOTE: "FAIR: INDICATES FEW OR NO CLOUDS BELOW 12,000 FEET WITH NO
SIGNIFICANT WEATHER AND/OR OBSTRUCTIONS TO VISIBILITY.

MSZ001>002-007>008-010>013-018>021-025>028-034>036-281900-
NORTHWEST MISSISSIPPI
  
CITY           SKY/WX    TMP DP  RH WIND       PRES   REMARKS
CLARKSDALE     FAIR      82  68  61 W9        30.08F                  
CLEVELAND      FAIR      83  70  64 N10       30.06F                  
GREENWOOD      SUNNY     87  67  51 N9        30.04F HX  90           
6HR MIN TEMP:  78; 6HR MAX TEMP:  87;                                

GREENVILLE     SUNNY     88  68  51 N13       30.06F HX  91           
6HR MIN TEMP:  78; 6HR MAX TEMP:  88;                                

GRENADA        FAIR      86  63  45 NW13      30.05F                  
OLIVE BRANCH   MOSUNNY   82  63  51 NW14      30.07F                  
OXFORD         FAIR      82  63  51 N6        30.08S                  
TUNICA         CLEAR     82  63  51 N14G20    30.08F                  
$$

MSZ003>006-009-014>017-022>024-029>033-037>039-281900-
NORTHEAST MISSISSIPPI
  
CITY           SKY/WX    TMP DP  RH WIND       PRES   REMARKS
BELMONT        FAIR      82  64  55 NW12      30.04S                  
COLUMBUS AFB   SUNNY     87  65  48 NW14      30.01F                  
6HR MIN TEMP:  78; 6HR MAX TEMP:  87;                                

CORINTH        FAIR      81  63  54 N10       30.04F                  
GOLDN TRIANGLE MOSUNNY   90  66  45 NW8       30.02F HX  92           
STARKVILLE     FAIR      86  64  48 NW7       30.02S                  
TUPELO         SUNNY     85  62  46 N12G20    30.03F                  
6HR MIN TEMP:  76; 6HR MAX TEMP:  85;                                

$$

MSZ040-058-281900-
CENTRAL MISSISSIPPI
  
CITY           SKY/WX    TMP DP  RH WIND       PRES   REMARKS
JACKSON INTL   MOSUNNY   92  73  53 VRB6      30.04F HX 100           
6HR MIN TEMP:  79; 6HR MAX TEMP:  92;                                

JACKSON HAWKNS SUNNY     90  71  53 NW10G16   30.05F HX  96           
6HR MIN TEMP:  79; 6HR MAX TEMP:  90;                                

MERIDIAN KEY   PTSUNNY   90  75  61 NW8       30.01F HX 100           
6HR MIN TEMP:  77; 6HR MAX TEMP:  90;                                

MERIDIAN NAS   MOSUNNY   91  73  55 NW12      30.00F HX  99           
6HR MIN TEMP:  78; 6HR MAX TEMP:  92;                                

RAYMOND        FAIR      88  82  84 NW5       30.05F HX 108           
VICKSBURG      MOSUNNY   88  74  63 NW7       30.06F HX  96           
6HR MIN TEMP:  77; 6HR MAX TEMP:  88; 6HR PCP:  0.03;                

$$

MSZ059>079-281900-
SOUTH MISSISSIPPI
  
CITY           SKY/WX    TMP DP  RH WIND       PRES   REMARKS
BROOKHAVEN     FAIR      86  75  70 W7        30.08F HX  95           
COLUMBIA       FAIR      88  79  74 NW7       30.04F HX 102           
HATTIESBURG    MOSUNNY   92  76  59 W13G20    30.03F HX 104           
6HR MIN TEMP:  79; 6HR MAX TEMP:  92;                                

MCCOMB         CLOUDY    88  75  65 W12       30.07F HX  97           
6HR MIN TEMP:  77; 6HR MAX TEMP:  89;                                

NATCHEZ        CLOUDY    84  75  74 NW6       30.08S HX  92           
6HR MIN TEMP:  77; 6HR MAX TEMP:  86;                                

PINE BELT      MOSUNNY   91  73  55 W10G18    30.05F HX 100           
6HR MIN TEMP:  77; 6HR MAX TEMP:  91;                                

$$

MSZ080>082-281900-
COASTAL MISSISSIPPI
  
CITY           SKY/WX    TMP DP  RH WIND       PRES   REMARKS
BAY ST LOUIS   MOSUNNY  N/A N/A N/A NW9       30.04F                  
BILOXI         MOSUNNY   93  77  58 VRB3      30.03F HX 107           
6HR MIN TEMP:  80; 6HR MAX TEMP:  94;                                

PASCAGOULA     MOSUNNY   93  75  55 VRB6      30.02F HX 104           
6HR MIN TEMP:  79; 6HR MAX TEMP:  93;                                

GULFPORT       MOSUNNY   96  75  50 NW9       30.02F HX 108           
6HR MIN TEMP:  82; 6HR MAX TEMP:  96;                                

$$

Return to Home page


Western Regional Climate Center, wrcc@dri.edu